This demonstration page uses our WeatherBlox Daily Observations layout. Learn more.

Hourly Observations for September 2, 2018

Temp ( °F °C ) Dew Point ( °F °C ) Humidity (%) Winds ( mph kmh ) Pressure ( in mb ) Visibility ( mi km ) Precip ( " mm )
12:15 am 00:15 Mostly Cloudy with Light Rain 69 20.7 66 18.7 88 88 SSE 20 31 29.83 1010 10 16.09344 0 0
12:35 am 00:35 Mostly Cloudy with Light Rain 70 20.9 67 19.4 91 91 S 20 31 29.83 1010 10 16.09344 0 0
12:55 am 00:55 Mostly Cloudy 69 20.5 66 19.1 92 92 S 20 31 29.8 1009 10 16.09344 0 0
1:15 am 01:15 Partly Cloudy 69 20.3 65 18.5 89 89 S 22 35 29.8 1009 10 16.09344 0 0
1:35 am 01:35 Clear with Light Rain 67 19.2 65 18.2 94 94 SSE 16 26 29.8 1009 10 16.09344 0 0
1:55 am 01:55 Clear with Light Rain 67 19.3 64 18 92 92 SSE 16 26 29.83 1010 10 16.09344 0 0
2:15 am 02:15 Clear with Nearby Thunderstorms 67 19.7 66 18.9 95 95 SSE 14 22 29.83 1010 10 16.09344 0 0
2:35 am 02:35 Partly Cloudy 68 19.8 66 19 95 95 SSE 13 20 29.83 1010 10 16.09344 0 0
2:55 am 02:55 Partly Cloudy 68 20 65 18.6 92 92 SSE 10 17 29.83 1010 10 16.09344 0 0
3:15 am 03:15 Partly Cloudy 67 19.7 66 18.7 94 94 SE 10 17 29.83 1010 10 16.09344 0 0
3:35 am 03:35 Mostly Cloudy 68 20 66 18.7 92 92 SSE 8 13 29.83 1010 10 16.09344 0 0
3:55 am 03:55 Cloudy 69 20.3 66 18.8 91 91 SSE 10 17 29.83 1010 10 16.09344 0 0
4:15 am 04:15 Cloudy with Nearby Thunderstorms 68 20.1 66 18.8 92 92 SSE 10 17 29.83 1010 10 16.09344 0 0
4:35 am 04:35 Partly Cloudy 68 20.1 65 18.5 91 91 SE 9 15 29.83 1010 10 16.09344 0 0
4:55 am 04:55 Clear 68 19.9 65 18.5 92 92 SE 10 17 29.83 1010 10 16.09344 0 0
5:15 am 05:15 Mostly Cloudy 67 19.7 65 18.5 93 93 ESE 9 15 29.83 1010 10 16.09344 0 0
5:35 am 05:35 Partly Cloudy 67 19.3 64 18 92 92 SE 8 13 29.83 1010 10 16.09344 0 0
5:55 am 05:55 Mostly Cloudy 67 19.2 64 18 93 93 SSE 9 15 29.83 1010 10 16.09344 0 0
6:15 am 06:15 Mostly Cloudy 66 19.1 65 18.1 94 94 SSE 8 13 29.83 1010 10 16.09344 0 0
6:35 am 06:35 Mostly Cloudy 67 19.7 65 18.2 91 91 SSE 9 15 29.85 1011 10 16.09344 0 0
6:55 am 06:55 Cloudy 67 19.6 64 18 91 91 SSE 10 17 29.85 1011 10 16.09344 0 0
7:15 am 07:15 Cloudy with Light Rain 67 19.6 65 18.1 91 91 SSE 14 22 29.85 1011 10 16.09344 0 0
7:35 am 07:35 Partly Cloudy with Light Drizzle 67 19.2 65 18.2 94 94 SSE 8 13 29.88 1012 10 16.09344 0 0
7:55 am 07:55 Partly Cloudy with Light Drizzle 66 19 65 18.2 95 95 ESE 8 13 29.91 1013 10 16.09344 0.01 0.254
8:15 am 08:15 Partly Cloudy 66 19 65 18.1 95 95 Calm 29.91 1013 10 16.09344 0 0
8:35 am 08:35 Partly Cloudy 67 19.2 65 18.1 93 93 SE 3 6 29.94 1014 10 16.09344 0 0
8:55 am 08:55 Partly Cloudy 66 19 65 18.2 95 95 SE 7 11 29.94 1014 10 16.09344 0 0
9:15 am 09:15 Mostly Cloudy with Light Drizzle 65 18.6 65 18.1 97 97 SE 8 13 29.94 1014 10 16.09344 0 0
9:35 am 09:35 Cloudy with Light Rain 65 18.6 65 18.3 98 98 SE 10 17 29.94 1014 10 16.09344 0 0
9:55 am 09:55 Cloudy with Light Rain 65 18.6 65 18.5 99 99 SE 12 19 29.94 1014 10 16.09344 0.02 0.508
10:15 am 10:15 Cloudy with Light Rain 66 19 66 18.9 99 99 SE 12 19 29.94 1014 10 16.09344 0 0
10:35 am 10:35 Cloudy with Light Rain 67 19.3 66 19.1 99 99 S 5 7 29.94 1014 10 16.09344 0 0
10:55 am 10:55 Cloudy 67 19.7 67 19.2 97 97 SW 6 9 29.91 1013 10 16.09344 0 0
11:15 am 11:15 Cloudy 68 19.9 67 19.4 97 97 SW 5 7 29.91 1013 10 16.09344 0 0
11:35 am 11:35 Cloudy 68 20 67 19.5 97 97 SW 5 7 29.91 1013 10 16.09344 0 0
11:55 am 11:55 Cloudy 69 20.5 67 19.6 95 95 SW 7 11 29.91 1013 10 16.09344 0 0
12:15 pm 12:15 Mostly Cloudy 71 21.8 68 19.9 89 89 W 7 11 29.91 1013 10 16.09344 0.01 0.254
12:35 pm 12:35 Partly Cloudy 72 22.2 67 19.7 86 86 W 6 9 29.91 1013 10 16.09344 0.01 0.254
12:55 pm 12:55 Partly Cloudy 74 23.2 68 20.1 83 83 SW 3 6 29.88 1012 10 16.09344 0.01 0.254
1:15 pm 13:15 Partly Cloudy 75 23.7 68 19.8 79 79 SW 3 6 29.88 1012 10 16.09344 0 0
1:35 pm 13:35 Partly Cloudy 77 25.2 69 20.4 75 75 SSW 5 7 29.88 1012 10 16.09344 0 0
1:55 pm 13:55 Mostly Cloudy 77 25.2 68 19.8 72 72 S 6 9 29.88 1012 10 16.09344 0 0
2:15 pm 14:15 Partly Cloudy 78 25.6 68 20.1 72 72 S 3 6 29.88 1012 10 16.09344 0 0
2:35 pm 14:35 Sunny 78 25.7 68 20.2 72 72 SSE 7 11 29.88 1012 10 16.09344 0 0
2:55 pm 14:55 Mostly Cloudy 79 25.9 66 19.1 66 66 SE 7 11 29.88 1012 10 16.09344 0 0
3:15 pm 15:15 Mostly Cloudy 80 26.4 64 17.7 59 59 S 13 20 29.88 1012 10 16.09344 0 0
3:35 pm 15:35 Partly Cloudy with Nearby Thunderstorms 78 25.7 65 18.2 63 63 SSE 13 20 29.88 1012 10 16.09344 0 0
3:55 pm 15:55 Sunny 78 25.5 66 18.9 67 67 S 12 19 29.88 1012 10 16.09344 0 0
4:15 pm 16:15 Sunny 78 25.4 66 19.1 68 68 SSE 7 11 29.88 1012 10 16.09344 0 0
4:35 pm 16:35 Sunny 78 25.5 66 19 67 67 SSE 7 11 29.85 1011 10 16.09344 0 0
4:55 pm 16:55 Partly Cloudy 78 25.7 66 19 67 67 SE 6 9 29.88 1012 10 16.09344 0 0
5:15 pm 17:15 Mostly Cloudy 78 25.6 66 19.1 67 67 SE 9 15 29.85 1011 10 16.09344 0 0
5:35 pm 17:35 Mostly Cloudy 73 23 67 19.7 82 82 NNE 7 11 29.85 1011 10 16.09344 0 0
5:55 pm 17:55 Partly Cloudy 74 23.5 68 20 81 81 NE 8 13 29.85 1011 10 16.09344 0 0
6:15 pm 18:15 Partly Cloudy 74 23.4 68 20.2 82 82 NNE 6 9 29.85 1011 10 16.09344 0 0
6:35 pm 18:35 Sunny 73 23 68 20 83 83 NE 7 11 29.85 1011 10 16.09344 0 0
6:55 pm 18:55 Sunny 73 22.6 69 20.5 88 88 NE 5 7 29.88 1012 10 16.09344 0 0
7:15 pm 19:15 Partly Cloudy 72 22.2 69 20.5 90 90 NE 6 9 29.91 1013 10 16.09344 0 0
7:35 pm 19:35 Sunny 71 21.8 69 20.5 92 92 NNE 5 7 29.91 1013 10 16.09344 0 0
7:55 pm 19:55 Sunny 71 21.6 69 20.6 94 94 Calm 29.91 1013 10 16.09344 0 0
8:15 pm 20:15 Clear with Mist and Fog 70 21.1 69 20.5 96 96 Calm 29.91 1013 4 6.437376 0 0
8:35 pm 20:35 Clear 70 21.1 69 20.7 98 98 ESE 5 7 29.91 1013 7 11.265408 0 0
8:55 pm 20:55 Clear 70 21.1 69 20.6 97 97 SE 9 15 29.91 1013 10 16.09344 0 0
9:15 pm 21:15 Clear 70 21.3 69 20.5 95 95 ESE 6 9 29.94 1014 10 16.09344 0 0
9:35 pm 21:35 Clear 70 21 69 20.3 96 96 ESE 5 7 29.94 1014 10 16.09344 0 0
9:55 pm 21:55 Partly Cloudy 70 20.9 69 20.6 98 98 ESE 9 15 29.94 1014 10 16.09344 0 0
10:15 pm 22:15 Cloudy 71 21.4 69 20.6 95 95 SE 12 19 29.97 1015 10 16.09344 0 0
10:35 pm 22:35 Cloudy 69 20.8 68 20.2 96 96 S 5 7 29.97 1015 10 16.09344 0 0
10:55 pm 22:55 Cloudy 69 20.6 68 20 96 96 SE 7 11 29.97 1015 10 16.09344 0 0
11:15 pm 23:15 Cloudy 68 20.2 68 19.8 98 98 ESE 6 9 29.97 1015 10 16.09344 0 0
11:35 pm 23:35 Cloudy 68 20.1 67 19.7 98 98 SE 9 15 29.97 1015 10 16.09344 0 0
11:55 pm 23:55 Cloudy 68 20.1 68 20 99 99 ESE 10 17 29.97 1015 10 16.09344 0 0

Powered by AerisWeather